This is the latest recevied weather packets stored in our database for station/object CA3SQH-10. If no packets are shown the sender has not sent any weather packets the latest 10 day(s).
| Time | Temp. | Humidity | Pressure | Rain* | Wind** | Luminosity | Snow |
|---|---|---|---|---|---|---|---|
| 1777825095 | 22.78° C | 37% | 939.6 hPa | - | - | - | - |
| 1777824839 | 22.78° C | 37% | 939.6 hPa | - | - | - | - |
| 1777823939 | 22.78° C | 36% | 939.6 hPa | - | - | - | - |
| 1777823039 | 21.67° C | 39% | 939.7 hPa | - | - | - | - |
| 1777822138 | 21.67° C | 42% | 939.6 hPa | - | - | - | - |
| 1777821238 | 21.11° C | 46% | 939.8 hPa | - | - | - | - |
| 1777820338 | 20.56° C | 42% | 939.9 hPa | - | - | - | - |
| 1777819438 | 20° C | 38% | 939.9 hPa | - | - | - | - |
| 1777818537 | 19.44° C | 36% | 940 hPa | - | - | - | - |
| 1777817637 | 18.89° C | 39% | 939.9 hPa | - | - | - | - |
| 1777816737 | 18.33° C | 41% | 939.9 hPa | - | - | - | - |
| 1777815837 | 17.78° C | 39% | 939.6 hPa | - | - | - | - |
| 1777814937 | 17.22° C | 37% | 939.7 hPa | - | - | - | - |
| 1777814036 | 16.11° C | 40% | 939.8 hPa | - | - | - | - |
| 1777814019 | 16.67° C | 40% | 939.8 hPa | - | - | - | - |
| 1777813119 | 15° C | 47% | 939.8 hPa | - | - | - | - |
| 1777812219 | 14.44° C | 48% | 939.7 hPa | - | - | - | - |
| 1777811319 | 13.89° C | 48% | 939.6 hPa | - | - | - | - |
| 1777810418 | 13.33° C | 46% | 939.6 hPa | - | - | - | - |
| 1777809518 | 12.78° C | 47% | 939.3 hPa | - | - | - | - |
| 1777808618 | 12.22° C | 50% | 939 hPa | - | - | - | - |
| 1777807718 | 12.22° C | 49% | 938.8 hPa | - | - | - | - |
| 1777806818 | 12.78° C | 49% | 938.5 hPa | - | - | - | - |
| 1777805917 | 12.78° C | 51% | 938.4 hPa | - | - | - | - |
| 1777805017 | 12.22° C | 53% | 938.4 hPa | - | - | - | - |
* Rain since midnight (hover to see other rain measurements)
** Current wind speed in m/s (hover to see current wind gust speed)